User: anonymous   Login
Location: York
(31.8935°S, 116.7682°E)
Time: 08:38:16
(UTC+08:00)
Language:

UKube-1 - Orbit

View from above orbital plane
View from above orbital plane
View from above satellite
View from above satellite

Ground track
Ground track

The orbit data is extracted from the following two-line orbital elements,

1 40074U 14037F   21216.43515989  .00000278  00000-0  40074-4 0  9992
2 40074  98.4250  74.9148 0003309 225.0177 135.0769 14.84595993383021
Epoch (UTC): 04 August 2021 10:26:37
Eccentricity: 0.0003309
inclination: 98.4250°
perigee height: 612 km
apogee height: 617 km
right ascension of ascending node: 74.9148°
argument of perigee: 225.0177°
revolutions per day: 14.84595993
mean anomaly at epoch: 135.0769°
orbit number at epoch: 38302

The dashed part of the orbit path shows where the satellite is in the earth's shadow,  

DLR